Regional Weather Roundup
Issued by NWS

Home | Current Version | Previous Version | Text Only | Print | Product List | Glossary On
Versions: 1 2 3 4 5 6 7 8 9 10 11 12 13 14 15 16 17 18 19 20 21 22 23 24 25 26 27 28 29 30 31 32 33 34 35 36 37 38 39 40 41 42 43 44 45 46 47 48 49
000
ASUS46 KPQR 241410
RWROR

OREGON REGIONAL WEATHER ROUNDUP
NATIONAL WEATHER SERVICE PORTLAND OR
700 AM PDT SUN MAY 24 2015

NOTE: "FAIR" INDICATES FEW OR NO CLOUDS BELOW 12,000 FEET WITH
NO SIGNIFICANT WEATHER AND/OR OBSTRUCTIONS TO VISIBILITY.

ORZ001>013-241500-
NORTHWEST OREGON


CITY           SKY/WX    TMP DP  RH WIND       PRES   REMARKS
ASTORIA        CLOUDY    52  50  93 NW7       30.18S FOG
NEWPORT        CLOUDY    52  46  82 CALM      30.21R
PORTLAND       CLOUDY    54  48  80 N5        30.17R
VANCOUVER WA   CLOUDY    54  47  77 N5        30.16R
SCAPPOOSE      CLOUDY    54  47  77 N5        30.16R
HILLSBORO      CLOUDY    52  47  83 W9        30.16S
AURORA         CLOUDY    53  47  79 N3        30.17S
MCMINNVILLE    CLOUDY    54  48  80 W3        30.17S
SALEM          CLOUDY    53  49  86 NW5       30.16S
CORVALLIS      CLOUDY    52  48  87 NW6       30.17S
EUGENE         CLOUDY    52  49  89 N7        30.16S FOG
$$

ORZ021-028-241500-
SOUTHWEST OREGON


CITY           SKY/WX    TMP DP  RH WIND       PRES   REMARKS
NORTH BEND     CLOUDY    52  50  93 N10       30.17R
BROOKINGS      FOG       50  50 100 CALM      30.08R VSB<1/4
ROSEBURG       CLOUDY    57  51  80 N7        30.13S
SEXTON SUMMIT  FOG       44  44 100 N6        30.11S VSB<1/4
MEDFORD        CLOUDY    53  47  79 CALM      30.11S
$$

ORZ014>016-041-241500-
COLUMBIA GORGE


CITY           SKY/WX    TMP DP  RH WIND       PRES   REMARKS
TROUTDALE      CLOUDY    55  48  77 MISG      30.15S
THE DALLES     SUNNY     59  49  69 NW15      30.04S
$$

ORZ029>031-041-044-049-050-061>064-502-503-505>511-241500-
EASTERN OREGON


CITY           SKY/WX    TMP DP  RH WIND       PRES   REMARKS
REDMOND        SUNNY     46  43  89 CALM      30.09R
BEND           SUNNY     46  41  81 SW7       30.10S
PRINEVILLE     SUNNY     46  45  93 CALM      30.09S
KLAMATH FALLS  SUNNY     43  41  93 CALM      30.10R
LAKEVIEW       SUNNY     48  45  87 W3        30.10F
HERMISTON      SUNNY     59  48  67 SW9       30.02R
PENDLETON      SUNNY     56  50  80 E3        30.03R
JOHN DAY       SUNNY     53  49  86 SW3       30.07S
MEACHAM        SUNNY     45  41  86 CALM      30.05F
LA GRANDE      SUNNY     55  45  67 W5        30.01R
BAKER CITY     SUNNY     54  47  77 W5        30.02S
BURNS          PTSUNNY   50  46  86 CALM      30.05R
ROME             N/A     53  47  79 SE5       30.01R
ONTARIO        SUNNY     62  47  57 CALM      29.96S
$$



USA.gov is the U.S. government's official web portal to all federal, state and local government web resources and services.